Location: Bachlergraben
(47.0000°N, 15.8000°E)
Time: 21:12:05
(UTC+00:00)

Daily predictions for brighter satellites

Satellite Brightness Start Highest point End
(mag) Time Altitude Azimuth Time Altitude Azimuth Time Altitude Azimuth
FengYun 1-2 T 4.4 15:39:01 10° SSE 15:44:29 56° ENE 15:49:56 10° N
ATLAS CENTAUR R/B 1.7 15:43:45 10° SW 15:47:50 67° NW 15:52:16 10° NNE
Cosmos 44 3.7 15:43:40 10° NNW 15:48:15 39° NE 15:52:34 10° ESE
Cosmos 2221 3.0 15:45:29 10° SSE 15:49:26 38° E 15:53:25 10° NNE
Cosmos 2098 Rocket 4.4 15:45:23 10° N 15:51:49 83° W 15:59:07 10° S
COSMO-SKYMED 1 4.3 15:52:51 10° NE 15:55:13 14° E 15:57:33 10° ESE
NOAA 12 4.1 15:51:37 10° SSE 15:56:56 83° ENE 16:02:18 10° NNW
CZ-2C R/B 3.9 15:53:39 10° NE 15:57:13 18° E 16:00:45 10° SE
CZ-4C R/B 3.8 15:53:08 10° NNW 15:58:30 25° NNE 16:04:35 10° ENE
USA 308 3.1 15:56:57 10° WSW 16:01:11 68° NNW 16:05:10 12° NE
Okean O Rocket 2.9 16:00:49 10° ESE 16:04:02 20° ENE 16:07:17 10° NNE
ISS -2.9 16:06:16 10° WNW 16:09:28 37° N 16:11:56 15° ENE
Cosmos 1464 Rocket 4.0 16:05:32 10° S 16:11:52 78° E 16:18:17 10° N
YAOGAN 1 4.4 16:13:14 12° NE 16:13:14 12° NE 16:14:17 10° NNE
NOAA 6 4.0 16:08:13 10° SSE 16:13:22 78° ENE 16:18:32 10° NNW
Cosmos 1461 4.2 16:10:29 10° WSW 16:14:20 34° NW 16:18:06 10° NNE
Cosmos 2084 4.2 16:15:50 10° NNW 16:19:44 34° NE 16:23:06 14° E
Cosmos 1408 Rocket 3.5 16:15:25 10° N 16:19:46 82° E 16:24:08 10° S
Cosmos 1271 Rocket 3.8 16:16:14 10° SSW 16:20:01 48° WNW 16:23:54 10° N
NOSS 2-1 (E) 3.8 16:17:59 10° WSW 16:21:06 43° NW 16:24:04 12° NNE
GEOS 3 Rocket 4.0 16:17:01 10° ESE 16:21:55 41° NE 16:26:46 10° NNW
CZ-4B R/B 4.0 16:18:11 10° S 16:22:15 48° W 16:26:08 10° NNW
Cosmos 1743 Rocket 3.7 16:19:56 10° N 16:24:09 49° ENE 16:28:20 10° SSE
Cosmos 1697 Rocket 3.1 16:19:05 10° NNW 16:24:20 38° NE 16:29:33 10° ESE
Cosmos 1980 Rocket 3.2 16:21:22 10° N 16:25:59 24° NE 16:28:49 17° E
Cosmos 1782 4.1 16:23:16 10° SE 16:26:16 21° E 16:26:58 20° ENE
Cosmos 1937 Rocket 4.2 16:21:38 10° N 16:26:26 32° ENE 16:31:11 10° ESE
Cosmos 1763 Rocket 3.9 16:22:39 10° S 16:27:19 39° ESE 16:31:14 14° NE
USA 267 3.6 16:21:33 13° NE 16:27:25 58° NNW 16:33:47 10° W
deb Kosmos-1763 4.1 16:24:06 10° SSW 16:27:30 72° WNW 16:30:53 10° NNE
Nadezhda 4 Rocket 4.0 16:21:12 10° N 16:27:33 82° E 16:33:53 10° S
Lacrosse 5 3.8 16:23:31 10° WNW 16:28:02 32° SW 16:32:31 10° S
SL-16 R/B 4.1 16:27:42 10° NNE 16:29:21 11° NNE 16:29:47 11° NE
CZ-2C R/B 4.2 16:25:42 10° S 16:30:30 45° W 16:35:09 10° NNW
USA 305 3.5 16:26:34 10° W 16:30:39 46° NNW 16:33:22 19° NE
Cosmos 1656 3.6 16:25:09 10° NNW 16:30:42 77° ENE 16:36:18 10° SSE
CZ-4B DEB 4.2 16:27:07 10° SSE 16:32:40 87° ENE 16:38:13 10° NNW
Cosmos 2082 Rocket 3.5 16:32:30 10° SE 16:36:16 18° E 16:36:39 18° E
Cosmos 1340 Rocket 2.7 16:32:42 10° N 16:36:48 80° E 16:40:52 10° SSE
Cosmos 1092 Rocket 4.0 16:31:32 10° N 16:37:50 60° ENE 16:44:05 10° SSE
Cosmos 1809 Rocket 4.5 16:32:58 10° N 16:38:57 54° ENE 16:44:53 10° SSE
USA 229 DEB 3.9 16:32:07 10° NW 16:39:20 63° NE 16:47:02 10° SE
USA 229 3.9 16:32:13 10° NW 16:39:26 63° NE 16:47:07 10° SE
COSMOS 2406 3.9 16:36:10 10° SSE 16:41:14 33° ESE 16:43:55 22° ENE
Cosmos 990 Rocket 3.9 16:36:52 10° NNW 16:42:06 73° ENE 16:47:15 10° SSE
SKYMED 2 3.9 16:40:36 17° NNE 16:43:40 41° E 16:47:46 10° S
Lacrosse 5 rocket 3.0 16:41:26 10° NW 16:44:15 19° N 16:45:17 17° NNE
ATLAS 2AS CENTAUR R/B 4.3 16:40:15 10° WNW 16:46:44 28° NNW 16:52:29 12° NNE
USA 276 2.0 16:43:55 10° WNW 16:47:03 71° NNE 16:47:51 45° E
Cosmos 1602 3.8 16:43:22 10° N 16:47:08 51° ENE 16:50:54 10° SSE
PAYLOAD B 4.3 16:42:40 10° SSE 16:48:17 89° WSW 16:53:56 10° NNW
Cosmos 1933 3.4 16:44:28 10° S 16:48:25 55° E 16:51:18 18° NNE
ATLAS CENTAUR R/B 3.1 16:38:13 10° SW 16:48:26 60° SE 16:50:57 28° ENE
Cosmos 1428 Rocket 4.4 16:44:21 10° N 16:50:27 64° ENE 16:56:31 10° SSE
SJ 16-02 3.5 16:46:51 10° NW 16:50:36 28° W 16:54:20 10° SSW
Cosmos 1500 Rocket 3.7 16:50:08 10° NNW 16:54:36 75° W 16:59:00 10° S
Cosmos 2034 Rocket 4.2 16:49:14 10° SSW 16:55:22 73° W 17:01:33 10° N
Cosmos 1627 Rocket 4.4 16:49:20 10° N 16:55:33 69° E 17:01:39 10° SSE
Meteor 1-26 Rocket 4.5 16:50:49 10° SSE 16:56:29 51° E 17:02:18 10° NNE
CZ-2D R/B 3.8 16:57:02 10° S 17:00:50 59° W 17:04:38 10° NNW
USA 306 3.8 16:58:42 10° W 17:02:41 37° NNW 17:04:00 29° NNE
NOSS 3-1 (A) 4.0 16:55:20 10° NW 17:02:49 85° NE 17:11:36 10° SE
Meteor 1-20 Rocket 4.4 16:59:01 10° NNW 17:04:50 77° W 17:10:40 10° S
Cosmos 1805 Rocket 3.4 17:01:07 10° N 17:05:29 85° E 17:09:49 10° S
Cosmos 1833 Rocket 2.6 17:03:20 10° SSW 17:08:53 68° ESE 17:11:51 28° NE
Cosmos 2279 Rocket 4.1 17:04:53 10° SSE 17:10:47 47° E 17:16:36 10° NNE
Cosmos 2360 4.1 17:05:14 10° NNW 17:11:00 75° ENE 17:16:43 10° SSE
CZ-4B R/B 3.2 17:07:32 10° SSE 17:13:00 80° WSW 17:18:25 10° NNW
NOSS 2-2 (D) 4.4 17:08:31 10° NNW 17:13:22 50° NE 17:15:23 37° E
Meteor 1-14 Rocket 4.3 17:08:58 10° N 17:14:37 53° ENE 17:20:21 10° SSE
NOSS 2-2 (E) 4.3 17:09:46 10° NW 17:14:52 60° NE 17:18:12 30° ESE
Sich 1 2.9 17:12:22 10° N 17:16:40 87° ENE 17:20:59 10° S
ARGOS 3.1 17:11:51 10° SSE 17:17:17 89° ENE 17:22:45 10° NNW
H-2A R/B 2.8 17:13:55 10° S 17:19:03 55° W 17:24:05 10° NNW
USA 307 3.8 17:15:14 10° W 17:19:13 36° NNW 17:19:51 34° N
ERBS 3.7 17:16:38 10° W 17:19:27 28° NNW 17:19:27 28° NNW
Cosmos 1898 Rocket 3.7 17:15:31 10° NNW 17:20:47 74° WSW 17:25:59 10° SSE
Cosmos 1634 Rocket 3.9 17:14:32 10° S 17:20:51 86° E 17:27:14 10° N
MOS 1-B Rocket 4.1 17:15:10 10° NNE 17:20:53 77° WNW 17:27:13 10° SSW
SL-24 R/B - RUBIN 2 4.2 17:19:30 10° NNW 17:23:12 40° NNE 17:23:12 40° NNE
COSMOS 2455 3.0 17:19:34 10° S 17:25:17 47° ESE 17:25:52 45° E
Cosmos 468 Rocket 4.2 17:22:09 10° SSW 17:27:16 69° WNW 17:30:21 25° NNE
ATLAS CENTAUR R/B 3.8 17:24:51 10° WNW 17:27:36 16° NNW 17:29:27 13° N
Landsat 5 3.3 17:27:18 64° NNE 17:27:55 87° ESE 17:32:00 10° SSW
COSMO-SKYMED 1 2.9 17:29:13 23° N 17:31:48 64° WNW 17:36:05 10° SSW
Meteor 2-16 Rocket 4.3 17:26:24 10° N 17:32:32 73° E 17:38:38 10° SSE
Cosmos 2026 Rocket 4.3 17:28:50 10° NNW 17:34:57 65° W 17:40:57 10° S
SL-08 RB Rocket 3.7 17:30:39 10° SSE 17:35:18 85° WSW 17:39:59 10° NNW
Cosmos 540 Rocket 3.3 17:30:47 10° SSW 17:35:53 88° ESE 17:37:03 55° NNE
CZ-2C R/B 2.9 17:32:51 10° N 17:38:01 65° WNW 17:43:07 10° SSW
Okean O Rocket 2.4 17:35:43 10° S 17:40:02 51° W 17:44:24 10° NNW
Cosmos 1500 4.1 17:37:17 10° NNW 17:44:46 - S 17:40:06 43° NW
USA 308 4.2 17:37:44 10° WNW 17:41:12 32° NNW 17:41:12 32° NNW
Cosmos 2360 Rocket 4.3 17:40:31 10° N 17:41:20 12° N 17:41:20 12° N
ISS -1.5 17:43:26 10° WNW 17:44:55 22° NW 17:44:55 22° NW
YAOGAN 1 4.2 17:50:23 25° NNW 17:50:23 25° NNW 17:52:14 10° NNW
Cosmos 2180 Rocket 4.4 17:41:37 10° S 17:47:56 69° E 17:49:36 49° NNE
CZ-4C R/B 2.9 17:41:27 10° NW 17:48:26 61° NE 17:49:48 54° E
Meteor 1-5 Rocket 4.3 17:49:46 10° NNW 17:55:47 84° W 18:01:44 10° S
CZ-4 R/B 4.1 18:00:22 12° NNW 18:00:22 12° NNW 18:00:39 10° NNW
GEOS 3 Rocket 4.5 17:56:54 23° S 17:59:53 47° WSW 18:04:55 10° NW
Cosmos 2369 4.0 17:54:34 10° NNW 18:00:16 66° WSW 18:02:24 38° S
Cosmos 2322 Rocket 4.1 17:55:57 10° N 17:57:36 17° N 17:57:36 17° N
Cosmos 1782 4.4 17:58:41 10° SW 18:02:20 34° WNW 18:02:36 33° WNW
Cosmos 1697 Rocket 4.0 18:03:08 10° NW 18:08:17 38° WSW 18:13:24 10° S
USA 267 4.0 18:08:54 36° NNE 18:09:45 38° N 18:15:39 10° WNW
Cosmos 1980 Rocket 2.3 18:04:53 10° NNW 18:10:32 70° WSW 18:10:40 69° WSW
Cosmos 841 Rocket 3.9 18:05:26 10° SSW 18:10:10 60° W 18:10:10 60° W
NOSS 2-2 (C) 4.4 18:05:29 10° NW 18:10:43 78° SW 18:10:59 77° SSW
SL-16 R/B 4.0 18:09:43 10° NNW 18:11:40 21° N 18:11:40 21° N
Cosmos 2082 Rocket 2.6 18:14:00 10° SSW 18:18:34 57° SW 18:18:34 57° SW
Lacrosse 5 rocket 4.2 18:20:37 10° NW 18:20:53 11° NW 18:20:53 11° NW
COSMOS 2406 4.1 18:19:54 10° SW 18:25:24 45° NW 18:26:01 43° NW
Cosmos 2278 4.4 18:20:40 10° NNW 18:24:47 48° NW 18:24:47 48° NW
ATLAS 2AS CENTAUR R/B 4.4 18:34:38 10° NW 18:39:54 22° N 18:39:54 22° N
CZ-4C R/B 4.2 19:30:08 10° NW 19:35:02 37° W 19:35:02 37° W
